#timestamp,LO_Frequency,Hit,StdDev 
1570284015.3,286047003.2,N
1570284035.1,286047004.2,N
1570284055.9,286047001.7,N
1570284075.7,286047003.7,N
1570284095.6,286047004.1,N
1570284115.4,286047001.9,N
1570284135.2,286047003.6,N
1570284155.1,286047003.6,N
1570284156.0,286047003.6,N
1570284175.8,286047004.6,N
1570284195.6,286047005.9,Y
1570284215.5,286047004.3,P
1570284235.3,286047004.0,P
1570284255.2,286047004.2,P
1570284275.9,286047003.7,Y
1570284295.7,286046998.1,P
1570284315.6,286046998.2,N
1570284335.4,286046999.0,N
1570284355.2,286046997.1,N
1570284375.1,286046996.6,N
1570284376.0,286046996.6,N
1570284395.8,286046999.3,N
1570284415.7,286046997.0,N
1570284435.5,286046999.4,N
1570284455.3,286046997.3,N
1570284475.2,286046998.1,N
1570284495.0,286047000.8,N
1570284495.9,286047000.8,N
1570284515.7,286047000.9,N
1570284535.6,286047002.2,N
1570284555.4,286047000.2,N
1570284575.3,286046998.8,N
1570284595.1,286046996.6,N
1570284596.0,286046996.6,N
1570284615.8,286046997.4,N
1570284635.7,286046997.7,N
1570284655.5,286046999.6,N
1570284675.3,286046999.4,N
1570284695.2,286046998.3,N
1570284715.0,286046998.4,N
1570284746.0,286046996.6,E
1570284755.9,286047000.6,N
1570284775.7,286047004.4,P
1570284795.5,286047005.0,N
1570284815.4,286047005.8,N
1570284835.2,286047004.2,N
1570284855.1,286047005.3,N
1570284856.0,286047005.3,Y
1570284875.8,286047000.5,P
1570284895.6,286046999.1,N
1570284915.5,286046998.3,N
1570284935.3,286046999.5,N
1570284955.2,286046997.4,N
1570284975.9,286046997.2,N
1570284995.7,286046997.1,N
1570285015.6,286046999.6,N
1570285035.4,286046997.2,N
1570285055.2,286046997.6,N
1570285075.1,286046995.2,N
1570285076.0,286046995.2,N
1570285095.8,286046996.2,N
1570285115.7,286046995.6,N
1570285135.5,286046996.4,N
1570285155.3,286046996.2,N
1570285175.2,286046995.6,N
1570285195.0,286046994.0,N
1570285195.9,286046994.0,N
1570285215.7,286046994.7,N
1570285235.6,286046991.7,Y
1570285255.4,286046993.5,P
1570285275.3,286046996.2,N
1570285295.1,286046993.6,P
1570285296.0,286046993.6,Y
1570285315.8,286046998.1,P
1570285335.7,286046998.3,N
1570285355.5,286046999.6,N
1570285375.3,286046996.5,N
1570285395.2,286046999.5,N
1570285415.0,286046996.6,N
1570285415.9,286046996.6,N
1570285435.8,286046997.7,N
1570285455.6,286046995.0,Y
1570285475.4,286046998.7,P
1570285495.3,286046998.1,P
1570285515.1,286046998.4,P
1570285535.9,286046998.9,N
1570285555.7,286047001.1,N
1570285575.5,286046999.2,N
1570285595.4,286046997.9,N
1570285615.2,286046994.9,Y
1570285635.0,286046998.0,P
1570285635.9,286046998.0,P
1570285655.8,286046997.0,P
1570285675.6,286046996.6,Y
1570285695.5,286046999.4,P
1570285715.3,286046996.9,P
1570285735.1,286046999.5,N
1570285755.9,286046998.0,N
1570285775.7,286046997.6,N
1570285795.5,286046998.0,N
1570285815.4,286046995.7,Y
1570285835.2,286046996.9,P
1570285855.1,286046997.4,P
1570285856.0,286046997.4,P
1570285875.8,286046997.3,Y
1570285895.6,286046999.6,P
1570285915.5,286046997.1,N
1570285935.3,286046996.7,P
1570285955.1,286046998.1,N
1570285975.9,286047000.8,N
1570285995.7,286046998.3,N
1570286015.6,286046996.9,N
1570286035.4,286046995.5,Y
1570286055.2,286046997.9,P
1570286075.1,286046999.0,P
1570286076.0,286046999.0,N
1570286095.8,286046997.7,Y
1570286115.6,286046999.2,P
1570286135.5,286046996.5,P
1570286155.3,286046996.7,N
1570286175.2,286046995.0,Y
1570286195.9,286046999.1,P
1570286215.7,286046999.1,N
1570286235.6,286046997.7,P
1570286255.4,286046999.6,N
1570286275.2,286046997.9,N
1570286295.1,286046995.4,Y
1570286296.0,286046995.4,P
1570286315.8,286046996.8,N
1570286335.7,286046997.2,N
1570286355.5,286046997.7,N
1570286375.3,286046996.9,Y
1570286395.2,286047002.3,P
1570286415.0,286047000.6,N
1570286415.9,286047000.6,N
1570286435.8,286047000.8,N
1570286455.6,286047002.8,N
1570286475.4,286047002.3,N
1570286495.3,286047002.5,N
1570286515.1,286047002.3,N
1570286535.8,286047000.5,N
1570286555.7,286047000.1,N
1570286575.5,286047002.5,N
1570286595.4,286047002.1,N
1570286615.2,286047001.0,N
1570286635.0,286046998.5,N
1570286635.9,286046998.5,N
1570286655.8,286046999.3,N
1570286675.6,286046998.8,N
1570286695.4,286046998.8,N
1570286715.3,286046996.5,N
1570286735.1,286046999.1,N
1570286755.9,286046996.7,N
1570286775.7,286046996.8,N
1570286795.5,286046996.2,N
1570286815.4,286046998.0,N
1570286835.2,286046995.1,N
1570286855.0,286046996.9,N
1570286855.9,286046996.9,N
1570286875.8,286046997.6,N
1570286895.6,286046997.6,N
1570286915.5,286046994.9,N
1570286935.3,286046995.6,N
1570286955.1,286046995.6,N
1570286975.9,286046995.7,N
1570286995.7,286046997.5,N
1570287015.5,286046995.3,N
1570287035.4,286046993.7,N
1570287055.2,286046993.7,N
1570287075.1,286046995.9,N
1570287076.0,286046995.9,N
1570287095.8,286046994.9,N
1570287115.6,286046995.8,N
1570287135.5,286046994.0,Y
1570287155.3,286046997.0,P
1570287175.1,286046998.5,P
1570287195.9,286046999.6,N
1570287215.7,286046999.3,N
1570287235.6,286046997.0,N
1570287255.4,286046996.8,N
1570287275.2,286046994.9,Y
1570287295.1,286046997.5,P
1570287296.0,286046997.5,P
1570287315.8,286046995.4,P
1570287335.6,286046997.2,N
1570287355.5,286046998.9,N
1570287375.3,286046996.7,Y
1570287395.2,286047000.9,P
1570287415.9,286047002.6,N
1570287435.7,286047002.0,N
1570287455.6,286047001.8,N
1570287475.4,286047001.9,N
1570287495.2,286047002.2,N
1570287515.1,286047000.4,N
1570287516.0,286047000.4,N
1570287535.8,286047000.6,N
1570287555.7,286046998.4,N
1570287575.5,286046998.7,N
1570287595.3,286047001.2,N
